Presure
161 223 190 121 144 134 424 403 383 287 416 132 400 368 324 323 299 300 304 299 301 294 288 297 297 300 272 241 229 227 115 143 209 156 202 147 72 174 143 169 163 167 96 131 86
164 232 168 204 290 207 397 388 253 354 360 362 429 407 375 336 319 240 282 291 301 299 293 287 296 290 290 257 202 227 252 224 99 103 144 138 176 209 161 154 168 164 157 121 117
141 126 207 163 146 96 400 379 293 361 354 424 443 384 412 384 324 310 302 281 274 293 286 290 291 312 330 270 266 260 273 194 153 123 84 200 182 203 178 149 154 168 161 163 142
161 178 203 174 242 383 322 365 457 463 460 477 420 497 444 413 363 368 310 297 286 270 285 244 306 296 280 328 354 279 327 229 89 90 100 190 194 179 205 170 171 162 157 159 158
149 123 232 254 127 389 242 467 415 493 494 494 488 492 459 439 400 357 374 306 294 278 286 294 297 290 281 319 338 330 336 244 216 216 160 200 178 174 184 194 173 173 97 154 154
148 141 238 223 377 393 267 430 553 504 461 455 444 452 464 455 429 391 339 339 309 288 296 282 154 300 300 315 322 312 324 339 224 230 224 190 192 200 190 191 186 178 164 161 157
143 126 130 192 348 252 375 467 446 495 453 429 434 420 430 433 433 437 358 358 322 290 279 283 286 285 307 311 312 325 310 304 234 247 206 178 219 214 190 181 200 179 175 159 158
140 258 162 237 236 211 374 464 540 485 453 431 434 420 435 449 467 444 441 362 320 311 287 302 285 279 293 314 306 321 303 368 239 196 217 209 198 189 191 213 214 185 173 167 169
123 126 125 161 151 205 378 468 506 493 441 432 431 428 429 440 441 478 513 361 323 306 310 308 269 270 281 290 318 323 312 302 285 221 210 214 206 155 119 185 164 209 141 170 157
224 134 136 155 299 236 313 359 447 489 466 453 437 426 418 427 432 446 506 450 334 316 302 291 275 143 285 292 314 322 319 300 372 224 214 201 205 197 188 204 91 169 195 166 147
134 153 152 166 214 174 209 354 434 464 473 473 444 420 414 419 415 425 475 410 337 335 312 293 290 284 280 280 289 299 316 274 342 383 219 216 202 199 180 189 133 199 179 192 165
121 163 251 160 193 157 239 249 354 383 403 427 468 446 425 419 418 422 429 426 390 330 305 292 319 286 284 229 281 300 303 307 279 346 253 221 210 206 195 111 192 204 212 177 161
123 176 240 143 155 184 267 366 338 374 378 406 410 468 450 428 428 422 424 433 383 332 297 295 308 285 266 177 281 284 300 306 269 323 349 224 214 219 207 194 166 193 204 197 167
129 148 157 196 159 222 209 340 330 347 355 365 349 378 512 463 438 425 440 430 446 336 304 289 296 289 270 275 270 276 285 301 306 298 301 321 218 213 213 192 175 165 167 202 187
153 165 167 183 185 165 157 339 326 318 356 363 353 349 374 472 465 462 444 432 429 333 312 289 292 285 273 277 271 272 280 295 299 274 284 333 316 222 217 213 190 183 197 153 209
157 161 159 227 230 177 266 245 265 312 335 338 330 335 336 356 451 451 479 427 430 338 312 284 295 274 279 273 268 270 275 294 290 301 271 287 272 323 230 220 210 187 195 202 160
155 160 212 181 247 276 264 236 313 326 323 317 329 317 327 322 334 345 378 379 405 345 302 290 288 280 284 277 270 279 277 296 292 292 285 282 279 344 275 269 223 209 201 201 204
145 157 235 201 254 240 142 329 163 325 322 321 327 314 302 308 308 318 346 358 386 328 310 284 276 298 281 286 269 271 285 274 284 282 287 311 328 125 319 342 276 224 209 206 196
133 156 170 145 196 260 148 330 161 316 322 338 341 323 307 320 321 317 327 330 345 326 297 283 274 278 276 277 282 276 274 281 270 297 297 304 325 96 324 276 322 300 259 210 209
168 154 237 125 231 253 173 141 180 294 313 323 330 324 309 314 312 309 315 311 320 332 302 276 275 272 273 275 280 286 277 266 284 271 302 292 303 323 348 336 280 271 348 271 264
160 107 150 161 173 182 252 140 205 303 322 341 337 336 310 299 299 315 300 312 315 326 302 293 283 272 271 274 276 275 287 277 290 289 293 300 330 339 300 313 343 279 290 284 358
161 108 172 174 257 174 198 126 200 257 206 311 340 306 333 312 295 294 297 320 318 312 318 282 296 286 272 268 275 168 277 281 282 287 331 303 303 298 326 350 361 321 285 271 276
157 173 176 213 226 194 258 132 140 219 319 315 301 314 307 311 294 294 297 298 302 321 313 318 312 289 280 277 275 271 274 279 285 298 281 286 288 290 303 313 355 343 297 271 310
190 172 166 212 181 139 178 261 125 293 221 312 300 306 305 309 300 280 303 286 290 285 298 298 302 310 291 280 273 271 275 275 279 291 285 310 288 291 310 320 333 312 318 287 257
161 157 142 153 149 171 206 263 132 354 195 207 308 293 302 304 296 286 272 298 280 285 285 283 288 292 289 298 291 270 264 281 280 293 286 272 281 296 305 304 319 324 294 305 279
151 149 146 140 171 186 248 320 163 273 353 207 308 285 286 311 299 286 284 274 294 289 261 276 290 282 277 282 272 274 276 281 291 280 278 269 284 266 291 297 300 314 321 312 299
151 130 219 139 173 143 214 129 360 178 350 329 318 298 291 291 293 299 288 287 278 285 281 283 281 282 272 259 260 261 266 268 272 275 273 268 267 291 296 283 284 288 291 313 304
Wind_Speed
59 73 63 54 68 59 38 34 36 45 42 45 51 58 60 64 60 62 70 75 78 80 81 80 83 84 92 91 89 88 51 65 90 67 93 75 23 99 67 93 80 79 44 62 45
58 80 64 59 59 54 41 36 39 41 44 45 53 58 63 68 68 49 69 73 79 78 81 79 82 84 83 95 79 88 88 86 30 21 51 47 89 98 90 74 88 82 78 54 62
61 60 68 62 34 28 52 46 38 42 43 47 48 57 65 67 70 75 76 72 73 78 80 79 80 76 67 91 92 91 93 93 71 57 14 99 94 100 102 66 69 88 85 85 70
60 67 62 65 90 63 59 57 62 58 54 47 50 48 57 69 74 75 80 80 77 72 79 64 76 76 75 60 56 86 76 97 17 11 32 93 101 92 101 99 100 79 81 82 79
59 53 90 91 65 67 62 64 57 41 29 24 23 35 49 56 74 82 80 84 81 79 82 81 76 76 74 60 58 66 71 102 103 100 81 102 96 87 97 105 95 96 36 80 80
60 67 99 92 79 73 71 66 29 21 19 20 20 27 32 44 62 76 83 87 85 82 85 78 37 73 72 61 61 72 74 80 104 103 107 99 103 108 102 92 102 100 87 87 83
56 65 63 69 104 80 77 65 32 12 12 18 20 28 30 37 48 55 83 84 88 85 80 80 80 76 67 64 64 62 78 90 103 107 106 92 111 115 98 87 105 101 98 82 85
49 115 66 104 93 49 82 63 29 11 9 17 17 27 27 27 27 45 54 81 87 88 85 81 81 77 68 59 67 62 79 69 102 82 110 103 104 100 101 108 104 98 97 92 95
57 62 59 62 60 79 87 61 40 18 15 16 18 25 22 18 18 17 28 81 88 89 90 81 80 77 77 71 60 59 70 79 92 106 109 106 111 75 51 90 74 102 73 98 82
111 57 57 60 105 91 98 86 51 30 18 10 12 15 16 14 13 11 23 51 89 91 89 87 84 39 78 67 52 52 60 77 57 109 111 103 110 108 97 103 26 85 102 97 68
56 63 62 58 100 71 66 91 58 50 38 13 12 15 13 13 12 15 16 55 87 87 91 90 84 80 75 70 64 60 57 86 56 53 114 116 112 111 92 92 57 95 90 108 97
52 63 101 60 66 58 97 85 79 55 65 55 16 10 14 13 13 18 29 52 66 87 91 88 78 79 76 63 69 59 63 70 91 64 111 118 113 112 101 42 90 98 104 99 87
50 87 109 58 63 72 101 73 82 54 54 66 52 21 12 14 14 17 28 45 70 88 87 83 76 80 77 48 68 68 60 66 91 68 60 116 114 110 100 96 83 95 102 99 94
62 71 70 72 62 86 81 76 79 67 60 53 50 58 7 12 10 16 24 38 41 87 86 81 80 78 77 75 76 72 69 63 68 77 78 76 114 106 106 93 87 84 86 103 98
71 85 73 75 62 61 60 74 75 73 57 52 54 51 65 12 7 18 26 37 45 82 84 78 79 77 78 74 76 74 71 63 66 85 84 63 99 108 107 103 91 91 101 77 110
67 80 81 100 95 77 102 101 86 69 60 48 49 50 52 58 32 22 19 31 39 76 81 77 78 76 76 73 74 74 71 62 67 66 83 84 92 92 110 105 106 100 103 106 82
64 78 101 94 101 107 102 87 66 59 55 55 40 40 49 44 45 38 27 21 29 68 75 79 75 75 73 73 72 68 70 61 64 67 67 78 84 52 99 100 107 106 105 103 104
55 76 104 99 98 97 49 69 58 54 51 46 32 30 31 27 25 26 20 20 20 62 75 76 68 68 70 70 69 67 61 66 62 65 65 61 55 47 83 75 105 109 108 106 99
38 76 80 55 90 105 60 53 62 51 45 31 23 19 22 21 21 23 25 25 21 53 71 72 69 63 61 63 66 65 64 64 66 57 61 58 49 36 63 88 79 100 104 105 110
98 73 103 45 96 103 75 49 58 56 45 34 19 15 19 20 19 21 20 24 24 34 72 64 69 64 63 62 61 58 62 64 62 61 55 55 50 41 43 51 83 90 71 104 105
84 33 66 88 78 79 97 47 75 73 35 23 16 4 14 16 16 17 14 15 22 31 65 71 70 68 64 62 59 56 57 59 57 55 49 44 30 34 49 49 45 80 81 88 72
93 33 104 100 113 78 83 30 54 56 62 32 9 19 6 5 10 8 15 5 17 20 35 54 64 73 68 59 57 36 56 52 49 44 26 29 32 36 29 31 41 52 69 78 79
94 104 78 100 101 89 100 33 40 42 33 29 25 8 7 7 6 4 9 13 12 15 19 24 38 66 68 62 54 48 49 44 38 30 28 27 32 32 33 32 35 41 57 73 66
92 77 104 100 68 48 70 105 33 31 51 28 27 15 8 0 1 5 13 12 10 14 20 23 30 35 60 54 47 45 39 35 30 24 27 16 29 32 28 27 37 43 45 58 70
94 92 54 54 55 65 87 106 33 26 51 52 23 22 9 7 4 3 2 15 9 17 18 21 24 26 29 32 38 36 32 29 27 28 24 28 25 27 27 27 26 46 48 48 59
81 52 49 49 88 72 115 94 47 35 23 51 22 22 17 17 11 9 10 8 19 24 13 16 19 22 20 24 25 27 27 26 28 27 26 28 24 33 26 26 22 20 30 51 52
91 42 90 51 73 47 86 24 49 47 24 20 22 21 22 13 13 19 15 17 16 20 20 24 22 18 19 27 27 25 23 24 25 26 27 26 27 21 25 28 28 25 24 26 49
Wind_Direction
329 345 336 327 317 322 326 312 300 303 272 306 252 243 242 236 239 236 233 233 233 232 231 230 231 227 225 227 223 221 227 227 217 218 218 222 245 219 226 226 231 227 230 231 235
334 346 331 336 332 332 329 313 307 296 284 271 259 250 240 236 234 231 235 232 232 230 231 229 230 227 223 224 229 219 221 217 214 223 212 223 225 217 225 228 229 227 229 229 235
325 320 353 330 327 315 337 326 315 298 284 274 263 249 244 233 232 229 230 232 232 228 230 229 229 229 229 222 223 222 217 218 224 235 165 221 223 221 219 226 228 227 226 227 226
342 333 343 333 349 347 333 332 312 304 295 289 263 249 238 237 227 219 227 227 228 230 228 229 227 227 222 225 228 218 214 214 214 199 251 220 223 220 216 223 226 227 226 229 228
339 321 355 355 323 348 329 328 328 308 291 288 276 259 239 231 230 220 216 224 224 226 225 224 223 225 221 222 223 217 212 212 215 216 224 218 224 227 219 218 223 228 231 230 232
335 320 351 354 351 349 346 340 324 307 279 284 269 262 252 241 229 223 219 215 221 223 222 225 233 222 223 221 219 215 211 209 214 213 215 219 222 223 221 220 219 224 227 228 232
341 316 319 1 358 353 352 347 329 322 266 279 261 256 248 238 231 224 215 210 216 221 222 223 220 220 223 219 216 215 211 210 211 211 218 221 218 221 225 221 215 224 224 229 232
328 341 331 350 1 348 353 348 358 331 267 274 261 261 262 254 247 229 218 209 214 215 219 214 220 219 220 222 215 218 213 212 210 211 217 216 221 225 226 223 218 219 225 230 228
316 317 330 333 332 353 355 360 5 3 338 296 271 268 262 261 246 222 197 209 210 213 215 211 220 220 216 218 222 221 214 213 212 213 219 216 220 224 227 224 221 215 226 228 232
338 329 334 332 358 358 359 359 7 20 0 305 277 260 266 257 232 198 197 186 206 208 213 214 217 226 215 216 224 225 218 214 217 213 218 222 219 223 225 225 232 218 218 225 233
337 337 334 340 350 348 344 358 15 25 31 356 295 281 260 248 218 190 176 191 204 201 206 215 211 214 215 213 218 216 218 209 217 220 216 218 218 221 225 223 227 219 221 219 232
333 351 352 337 344 339 357 358 4 20 36 30 14 286 265 250 220 195 174 182 195 198 204 213 207 212 210 218 216 216 217 214 211 216 214 220 219 221 222 229 224 225 223 223 236
341 356 347 341 343 346 352 5 2 18 33 37 25 14 248 238 224 193 184 180 191 196 206 210 204 209 215 227 216 216 220 219 214 216 220 219 223 220 223 223 222 225 226 223 231
329 346 350 360 335 353 356 359 360 5 11 38 39 35 43 217 220 181 175 183 184 194 201 208 205 204 212 211 214 214 218 224 222 216 217 220 221 223 223 225 224 225 225 228 226
357 358 354 354 343 343 350 359 358 2 22 37 39 42 43 54 160 163 170 175 180 193 195 206 205 207 211 211 215 217 217 223 224 217 217 221 215 222 225 224 227 229 229 232 228
356 360 356 354 356 346 355 1 358 1 10 23 33 38 46 46 68 104 157 160 168 188 192 205 206 209 210 212 216 219 219 223 224 226 219 221 222 221 224 224 224 229 229 230 229
355 357 348 357 351 359 358 358 356 358 4 8 42 39 45 45 39 48 91 112 163 182 193 200 208 210 210 213 217 221 223 223 226 227 225 224 223 231 225 226 226 228 233 231 231
355 353 356 353 3 351 355 355 355 356 2 7 31 25 31 58 56 49 46 87 132 184 190 202 212 209 212 212 218 220 224 226 228 229 230 234 233 214 226 230 228 229 231 232 233
342 357 357 354 352 358 350 355 359 350 355 359 34 41 22 43 66 81 74 97 126 183 192 202 212 218 218 217 220 221 224 229 229 236 235 235 240 235 235 229 228 229 234 231 233
339 352 353 343 350 356 353 358 357 352 346 358 16 21 19 32 66 86 105 133 136 163 191 202 210 220 223 223 224 224 224 228 234 233 240 238 242 242 239 239 229 230 226 233 237
346 332 346 356 358 356 355 356 352 354 343 355 0 40 34 21 35 86 92 143 167 160 189 197 206 215 222 225 226 226 230 231 237 239 243 250 234 237 240 238 228 229 230 232 221
340 340 336 342 359 351 352 345 358 349 349 337 339 9 130 72 22 55 75 87 177 183 185 202 202 207 218 225 226 244 230 234 238 245 237 238 237 238 241 234 218 224 230 233 234
335 333 355 336 350 352 351 345 1 353 333 329 333 354 11 123 39 59 124 118 134 162 177 175 196 208 217 223 226 229 234 237 242 243 240 232 237 237 239 235 214 217 225 231 224
344 347 332 345 347 340 351 349 339 334 350 319 316 323 342 248 166 36 159 141 155 156 164 177 190 202 216 223 225 230 231 233 236 233 225 225 232 234 232 227 211 216 222 226 232
337 332 356 2 352 348 345 346 347 319 347 349 296 304 302 273 264 224 234 175 184 178 186 187 190 198 203 208 211 225 231 233 230 220 206 214 221 229 223 226 229 218 222 220 225
339 5 1 353 341 335 344 344 339 334 289 344 284 289 284 236 238 240 230 208 194 192 179 201 205 206 201 206 213 220 225 226 221 210 215 217 228 224 225 219 221 229 225 220 223
328 357 351 345 341 337 344 342 323 340 282 268 262 264 261 238 223 229 229 229 219 215 205 210 207 203 185 193 195 201 205 204 206 204 203 208 217 226 226 223 219 219 225 226 217